GW1065 Weather Reports


time (UTC)temp
C
wind
direction
speed
KPH
gust
KPH
rain 1hr
cm
rain 24hr
cm
rain mn
cm
humidity
%
barometer
mb
20260906171606 35 0 0.0 3.2 0.00 0.00 0.00 58 1015.7
20260906170103 35 0 0.0 4.8 0.00 0.00 0.00 59 1016.0
20260906164553 34 136 0.0 4.8 0.00 0.00 0.00 60 1016.1
20260906163108 34 0 0.0 1.6 0.00 0.00 0.00 62 1016.1
20260906161556 33 0 0.0 3.2 0.00 0.00 0.00 62 1016.1
20260906154600 32 0 0.0 3.2 0.00 0.00 0.00 67 1016.1
20260906153057 31 146 0.0 4.8 0.00 0.00 0.00 70 1015.9
20260906151559 30 0 0.0 1.6 0.00 0.00 0.00 74 1015.8
20260906144559 28 0 0.0 1.6 0.00 0.00 0.00 78 1015.8
20260906143103 27 0 0.0 1.6 0.00 0.00 0.00 80 1015.8
20260906141555 27 0 0.0 3.2 0.00 0.00 0.00 81 1016.0
20260906140059 26 140 0.0 3.2 0.00 0.00 0.00 82 1016.0
20260906134559 26 140 0.0 1.6 0.00 0.00 0.00 83 1015.9
20260906133101 25 0 0.0 3.2 0.00 0.00 0.00 83 1015.8
20260906131557 25 0 0.0 3.2 0.00 0.00 0.00 83 1015.7
20260906130056 25 0 0.0 1.6 0.00 0.00 0.00 84 1015.4
20260906124557 24 0 0.0 1.6 0.00 0.00 0.00 84 1015.3
20260906123059 24 0 0.0 0.0 0.00 0.00 0.00 83 1015.2
20260906121558 24 0 0.0 0.0 0.00 0.00 0.00 83 1015.0
20260906120114 24 0 0.0 0.0 0.00 0.00 0.00 83 1015.0
20260906114558 24 0 0.0 0.0 0.00 0.00 0.00 83 1014.6
20260906113100 24 0 0.0 0.0 0.00 0.00 0.00 83 1014.6
20260906111612 24 0 0.0 0.0 0.00 0.00 0.00 82 1014.4
20260906110057 24 0 0.0 0.0 0.00 0.00 0.00 82 1014.4
20260906104605 25 0 0.0 0.0 0.00 0.00 0.00 81 1014.4
20260906103057 25 0 0.0 0.0 0.00 0.00 0.00 81 1014.3
20260906101557 25 0 0.0 0.0 0.00 0.00 0.00 81 1014.3
20260906094548 25 0 0.0 0.0 0.00 0.00 0.00 81 1014.2
20260906093054 25 0 0.0 0.0 0.00 0.00 0.00 81 1014.1
20260906091550 25 0 0.0 0.0 0.00 0.00 0.00 81 1014.0
20260906084556 25 0 0.0 0.0 0.00 0.00 0.00 80 1013.9
20260906083054 25 0 0.0 0.0 0.00 0.00 0.00 80 1013.8
20260906081559 25 0 0.0 0.0 0.00 0.00 0.00 79 1013.7
20260906080109 25 0 0.0 0.0 0.00 0.00 0.00 78 1013.7
20260906074600 25 0 0.0 0.0 0.00 0.00 0.00 78 1013.5
20260906073051 25 0 0.0 0.0 0.00 0.00 0.00 77 1013.6
20260906071602 25 0 0.0 0.0 0.00 0.00 0.00 76 1013.6
20260906070056 26 0 0.0 0.0 0.00 0.00 0.00 76 1013.8
20260906064557 26 0 0.0 0.0 0.00 0.00 0.00 76 1013.9
20260906063102 26 0 0.0 0.0 0.00 0.00 0.00 75 1014.1
20260906061559 26 0 0.0 0.0 0.00 0.00 0.00 75 1014.1
20260906060058 26 0 0.0 0.0 0.00 0.00 0.00 75 1014.1
20260906054559 26 0 0.0 0.0 0.00 0.00 0.00 75 1014.1
20260906053056 26 0 0.0 0.0 0.00 0.00 0.00 75 1014.2
20260906051608 26 0 0.0 0.0 0.00 0.00 0.00 74 1014.3
20260906050055 26 0 0.0 0.0 0.00 0.00 0.00 73 1014.1
20260906044602 26 0 0.0 0.0 0.00 0.00 0.00 72 1014.0
20260906043055 27 0 0.0 0.0 0.00 0.00 0.00 71 1014.0
20260906041610 27 0 0.0 0.0 0.00 0.00 0.00 70 1013.8
20260906040110 27 0 0.0 0.0 0.00 0.00 0.00 68 1013.8
20260906034557 28 0 0.0 0.0 0.00 0.00 0.00 67 1013.5
20260906033054 28 0 0.0 0.0 0.00 0.00 0.00 67 1013.3
20260906031553 28 0 0.0 0.0 0.00 0.00 0.00 66 1013.3
20260906024613 29 0 0.0 0.0 0.00 0.00 0.00 63 1013.0
20260906023056 30 0 0.0 0.0 0.00 0.00 0.00 63 1013.0
20260906021556 30 0 0.0 0.0 0.00 0.00 0.00 62 1012.6
20260906020101 30 0 0.0 0.0 0.00 0.00 0.00 60 1012.5
20260906014602 31 0 0.0 0.0 0.00 0.00 0.00 59 1012.3
20260906013047 31 0 0.0 0.0 0.00 0.00 0.00 58 1012.3
20260906011558 32 0 0.0 0.0 0.00 0.00 0.00 58 1012.3
20260906010109 33 0 0.0 0.0 0.00 0.00 0.00 56 1012.3
20260906004553 33 0 0.0 0.0 0.00 0.00 0.00 54 1012.2
20260906003113 35 0 0.0 0.0 0.00 0.00 0.00 52 1012.3
20260906001556 36 0 0.0 0.0 0.00 0.00 0.00 49 1012.3
20260905234553 37 0 0.0 1.6 0.00 0.00 0.00 46 1012.1
20260905233053 37 0 0.0 0.0 0.00 0.00 0.00 45 1012.0
20260905231556 37 0 0.0 0.0 0.00 0.00 0.00 43 1011.8
20260905230106 37 0 0.0 0.0 0.00 0.00 0.00 42 1011.9
20260905224556 38 0 0.0 1.6 0.00 0.00 0.00 41 1011.8
20260905223053 38 0 0.0 1.6 0.00 0.00 0.00 39 1011.9
20260905221553 38 0 0.0 3.2 0.00 0.00 0.00 39 1011.8
20260905220056 38 0 0.0 1.6 0.00 0.00 0.00 40 1012.2
20260905214600 38 0 0.0 1.6 0.00 0.00 0.00 42 1012.3
20260905213057 37 0 0.0 3.2 0.00 0.00 0.00 41 1012.6
20260905211556 37 271 0.0 3.2 0.00 0.00 0.00 40 1012.8
20260905210052 37 105 0.0 3.2 0.00 0.00 0.00 41 1013.1
20260905204601 37 105 0.0 4.8 0.00 0.00 0.00 42 1013.1
20260905203059 37 0 0.0 3.2 0.00 0.00 0.00 41 1013.2
20260905201555 36 0 0.0 4.8 0.00 0.00 0.00 43 1013.3
20260905200107 37 0 0.0 3.2 0.00 0.00 0.00 42 1013.6
20260905194557 37 0 0.0 1.6 0.00 0.00 0.00 43 1013.8
20260905193109 37 0 0.0 0.0 0.00 0.00 0.00 44 1013.8
20260905191558 36 0 0.0 1.6 0.00 0.00 0.00 44 1014.1
20260905190100 36 0 0.0 4.8 0.00 0.00 0.00 44 1014.2
20260905184611 36 0 0.0 3.2 0.00 0.00 0.00 42 1014.1
20260905183100 36 234 0.0 4.8 0.00 0.00 0.00 45 1014.3
20260905181608 36 204 0.0 4.8 0.00 0.00 0.00 49 1014.5
20260905180108 36 0 0.0 3.2 0.00 0.00 0.00 49 1014.7
20260905174559 35 127 0.0 3.2 0.00 0.00 0.00 51 1014.9
20260905173103 35 0 0.0 4.8 0.00 0.00 0.00 54 1015.2